Location: The Saddle
(36.8333°N, 80.3417°W)
Time: 02:46:15
(UTC-05:00)

Vanguard 2 - All Passes

Search period start: 26 February 2024 00:00
Search period end: 07 March 2024 00:00
Orbit: 553 x 2919 km, 32.9° (Epoch: 25 February)

Date Brightness Start Highest point End Pass type
(mag) Time Alt. Az. Time Alt. Az. Time Alt. Az.
26 Feb - 01:06:47 10° W 01:22:20 48° SSW 01:38:10 10° SE visible
26 Feb - 03:21:35 10° W 03:32:38 20° SW 03:42:50 10° S visible
26 Feb - 16:50:19 10° S 16:55:25 19° SE 17:02:12 10° E daylight
26 Feb - 18:54:35 10° SW 19:03:12 54° SSE 19:17:08 10° E visible
26 Feb - 21:02:11 10° W 21:13:40 76° S 21:30:49 10° E visible
26 Feb - 23:11:23 10° W 23:25:39 67° SSW 23:43:19 10° ESE visible
27 Feb - 01:22:25 10° W 01:37:20 41° SSW 01:52:30 10° SSE visible
27 Feb - 03:39:41 10° WSW 03:47:20 14° SW 03:54:37 10° SSW visible
27 Feb - 17:04:08 10° SSW 17:10:00 26° SE 17:18:28 10° E daylight
27 Feb - 19:09:30 10° WSW 19:18:16 62° SSE 19:32:38 10° E visible
27 Feb - 21:17:23 10° W 21:29:00 76° S 21:46:14 10° E visible
27 Feb - 23:26:43 10° W 23:40:55 61° SSW 23:58:18 10° SE visible
28 Feb - 01:38:16 10° W 01:52:16 34° SW 02:06:31 10° SSE night (unlit)
28 Feb - 17:18:24 10° SSW 17:24:42 33° SE 17:34:21 10° E daylight
28 Feb - 19:24:31 10° WSW 19:33:25 68° SSE 19:48:07 10° E visible
28 Feb - 21:32:37 10° W 21:44:21 74° S 22:01:35 10° ESE visible
28 Feb - 23:42:05 10° W 23:56:07 54° SSW 00:13:04 10° SE visible
29 Feb - 01:54:27 10° W 02:07:09 27° SW 02:20:04 10° S night (unlit)
29 Feb - 17:32:57 10° SW 17:39:30 41° SSE 17:49:59 10° E daylight
29 Feb - 19:39:36 10° WSW 19:48:38 72° S 20:03:34 10° E visible
29 Feb - 21:47:51 10° W 21:59:39 70° S 22:16:50 10° ESE visible
29 Feb - 23:57:32 10° W 00:11:14 47° SSW 00:27:37 10° SE visible
01 Mar - 02:11:14 10° W 02:22:01 20° SW 02:32:57 10° S night (unlit)
01 Mar - 15:44:13 10° SSE 15:47:14 14° SE 15:50:55 10° ESE daylight
01 Mar - 17:47:42 10° SW 17:54:24 50° SSE 18:05:31 10° E daylight
01 Mar - 19:54:44 10° W 20:03:53 74° S 20:18:59 10° E visible
01 Mar - 22:03:05 10° W 22:14:56 64° SSW 22:31:57 10° ESE visible
02 Mar - 00:13:07 10° W 00:26:19 39° SSW 00:41:53 10° SSE visible
02 Mar - 02:29:18 10° WSW 02:36:52 14° SW 02:44:33 10° SSW night (unlit)
02 Mar - 15:57:40 10° S 16:01:51 20° SE 16:07:29 10° E daylight
02 Mar - 18:02:33 10° WSW 18:09:25 58° SSE 18:20:59 10° E daylight
02 Mar - 20:09:53 10° W 20:19:09 73° S 20:34:22 10° ESE visible
02 Mar - 22:18:21 10° W 22:30:10 58° SSW 22:46:54 10° SE visible
03 Mar - 00:28:57 10° W 00:41:21 32° SW 00:55:45 10° SSE visible
03 Mar - 16:11:48 10° SSW 16:16:32 27° SE 16:23:24 10° E daylight
03 Mar - 18:17:32 10° WSW 18:24:31 64° SSE 18:36:24 10° E daylight
03 Mar - 20:25:03 10° W 20:34:24 71° S 20:49:42 10° ESE visible
03 Mar - 22:33:41 10° W 22:45:22 50° SSW 23:01:37 10° SE visible
04 Mar - 00:45:08 10° W 00:56:22 25° SW 01:09:09 10° S visible
04 Mar - 16:26:17 10° SW 16:31:19 35° SSE 16:39:01 10° E daylight
04 Mar - 18:32:34 10° WSW 18:39:39 69° S 18:51:48 10° E visible
04 Mar - 20:40:13 10° W 20:49:40 66° S 21:04:54 10° ESE visible
04 Mar - 22:49:06 10° W 23:00:31 43° SSW 23:16:05 10° SE visible
05 Mar - 01:01:59 10° WSW 01:11:22 19° SW 01:21:47 10° S night (unlit)
05 Mar - 16:40:59 10° SW 16:46:12 44° SSE 16:54:30 10° E daylight
05 Mar - 18:47:40 10° W 18:54:50 70° S 19:07:10 10° E visible
05 Mar - 20:55:24 10° W 21:04:53 60° SSW 21:19:59 10° ESE visible
05 Mar - 23:04:41 10° W 23:15:40 35° SSW 23:30:13 10° SSE visible
06 Mar - 01:20:24 10° WSW 01:26:24 13° SW 01:32:47 10° SSW night (unlit)
06 Mar - 14:51:17 10° S 14:54:00 15° SE 14:57:15 10° ESE daylight
06 Mar - 16:55:49 10° WSW 17:01:11 52° SSE 17:09:54 10° E daylight
06 Mar - 19:02:46 10° W 19:10:02 69° S 19:22:29 10° ESE visible
06 Mar - 21:10:38 10° W 21:20:05 53° SSW 21:34:52 10° SE visible
06 Mar - 23:20:30 10° W 23:30:47 28° SSW 23:43:57 10° SSE visible
